Location: Kermapucano
(48.0667°N, 3.3000°W)
Time: 20:23:09
(UTC+00:00)

Cosmos 1844 - Pass Details

Date: 29 November 2020
Orbit: 821 x 869 km, 70.9° (Epoch: 27 January)

Event Time Altitude Azimuth Distance (km) Brightness Sun altitude
Rises 06:07:24 0° 207° (SSW) 3,341 6.7 -14.9°
Reaches altitude 10° 06:09:48 10° 208° (SSW) 2,412 6.0 -14.5°
Maximum altitude 06:15:20 85° 296° (WNW) 832 3.6 -13.7°
Drops below altitude 10° 06:20:56 10° 27° (NNE) 2,440 6.2 -12.8°
Sets 06:23:24 0° 28° (NNE) 3,383 7.0 -12.4°
